Total_Precipitation_Accumulation
1.76 1.73 1.64 1.67 1.62 1.57 1.48 1.38 1.22 1.09 0.96 0.83 0.74 0.70 0.66 0.63 0.60 0.62 0.63 0.65 0.71 0.73 0.72 0.78 0.87 0.95 1.08 1.18 1.28 1.33 1.40 1.41 1.41 1.32 1.23 1.20 1.17 1.14 1.13 0.99 0.91 0.86 0.83
1.38 1.38 1.42 1.38 1.36 1.31 1.21 1.10 0.96 0.86 0.76 0.68 0.62 0.62 0.60 0.57 0.57 0.57 0.55 0.53 0.54 0.56 0.57 0.62 0.69 0.72 0.81 0.85 0.94 1.03 1.10 1.17 1.20 1.29 1.33 1.25 1.19 1.17 1.09 0.95 0.76 0.66 0.67
1.21 1.22 1.30 1.24 1.20 1.10 1.00 0.96 0.85 0.72 0.65 0.62 0.58 0.55 0.53 0.52 0.49 0.48 0.48 0.44 0.40 0.41 0.44 0.46 0.51 0.54 0.59 0.60 0.64 0.70 0.79 0.91 1.06 1.16 1.23 1.21 1.18 1.16 1.09 0.88 0.73 0.70 0.56
1.07 1.13 1.17 1.12 1.06 1.01 0.88 0.77 0.70 0.63 0.61 0.60 0.54 0.48 0.41 0.37 0.35 0.38 0.42 0.37 0.32 0.32 0.34 0.37 0.41 0.43 0.45 0.47 0.49 0.54 0.62 0.78 0.93 1.01 0.99 0.98 1.00 0.96 0.95 0.87 0.75 0.65 0.55
0.99 1.01 0.99 0.96 0.94 0.93 0.85 0.75 0.66 0.57 0.52 0.49 0.44 0.41 0.36 0.32 0.32 0.33 0.36 0.34 0.31 0.30 0.28 0.28 0.31 0.36 0.40 0.40 0.40 0.48 0.58 0.73 0.83 0.87 0.85 0.80 0.78 0.80 0.80 0.74 0.70 0.63 0.52
0.95 0.93 0.92 0.92 0.92 0.87 0.81 0.77 0.68 0.58 0.49 0.45 0.39 0.37 0.35 0.30 0.30 0.30 0.29 0.33 0.35 0.35 0.31 0.27 0.27 0.27 0.30 0.33 0.36 0.43 0.52 0.60 0.64 0.68 0.69 0.71 0.69 0.68 0.71 0.69 0.67 0.67 0.63
1.01 0.95 0.94 0.93 0.87 0.80 0.67 0.64 0.63 0.59 0.48 0.42 0.37 0.35 0.37 0.34 0.30 0.27 0.28 0.34 0.38 0.39 0.36 0.34 0.28 0.24 0.31 0.34 0.35 0.38 0.42 0.44 0.50 0.60 0.66 0.67 0.65 0.70 0.78 0.78 0.76 0.73 0.67
1.02 0.94 0.85 0.82 0.78 0.72 0.68 0.61 0.56 0.53 0.48 0.45 0.40 0.37 0.36 0.33 0.30 0.28 0.28 0.32 0.39 0.38 0.36 0.37 0.38 0.39 0.35 0.35 0.31 0.33 0.38 0.44 0.49 0.53 0.64 0.65 0.60 0.65 0.77 0.80 0.75 0.70 0.66
0.88 0.81 0.72 0.70 0.74 0.74 0.68 0.63 0.58 0.52 0.47 0.41 0.39 0.38 0.39 0.35 0.30 0.28 0.29 0.32 0.36 0.31 0.28 0.31 0.33 0.35 0.34 0.35 0.35 0.38 0.40 0.45 0.44 0.50 0.55 0.60 0.65 0.68 0.69 0.71 0.78 0.85 0.82
0.75 0.73 0.64 0.61 0.65 0.72 0.63 0.59 0.54 0.49 0.45 0.38 0.37 0.39 0.40 0.40 0.33 0.29 0.30 0.28 0.31 0.27 0.27 0.28 0.29 0.26 0.25 0.26 0.30 0.41 0.50 0.48 0.45 0.49 0.65 0.82 0.89 0.86 0.76 0.76 0.85 0.90 0.89
0.57 0.62 0.62 0.59 0.58 0.59 0.57 0.57 0.54 0.49 0.48 0.46 0.44 0.45 0.43 0.39 0.35 0.30 0.30 0.28 0.28 0.27 0.28 0.29 0.29 0.23 0.20 0.21 0.28 0.39 0.45 0.43 0.48 0.64 0.84 0.95 0.93 0.84 0.74 0.70 0.76 0.85 0.90
0.54 0.62 0.63 0.59 0.49 0.49 0.57 0.59 0.54 0.50 0.47 0.47 0.47 0.48 0.43 0.40 0.35 0.32 0.32 0.30 0.27 0.26 0.28 0.27 0.26 0.24 0.21 0.22 0.25 0.31 0.33 0.41 0.59 0.79 0.89 0.87 0.74 0.62 0.60 0.57 0.59 0.66 0.78
0.56 0.59 0.59 0.55 0.51 0.51 0.55 0.57 0.56 0.52 0.44 0.42 0.44 0.47 0.42 0.36 0.31 0.27 0.28 0.26 0.24 0.25 0.27 0.25 0.25 0.26 0.29 0.35 0.36 0.34 0.40 0.55 0.69 0.78 0.81 0.74 0.63 0.55 0.52 0.52 0.51 0.58 0.62
0.60 0.58 0.57 0.58 0.57 0.52 0.47 0.45 0.46 0.45 0.40 0.38 0.39 0.39 0.35 0.32 0.25 0.19 0.21 0.22 0.22 0.24 0.26 0.30 0.38 0.43 0.45 0.47 0.51 0.55 0.57 0.59 0.59 0.67 0.67 0.62 0.53 0.48 0.47 0.44 0.48 0.53 0.58
0.56 0.52 0.52 0.54 0.53 0.50 0.41 0.35 0.33 0.28 0.21 0.22 0.24 0.24 0.25 0.22 0.17 0.17 0.20 0.22 0.20 0.21 0.24 0.35 0.52 0.58 0.58 0.56 0.55 0.54 0.56 0.54 0.55 0.56 0.54 0.53 0.51 0.46 0.44 0.40 0.41 0.44 0.51
0.52 0.46 0.42 0.42 0.41 0.37 0.34 0.30 0.22 0.15 0.12 0.09 0.09 0.10 0.11 0.13 0.11 0.09 0.12 0.17 0.17 0.21 0.28 0.47 0.56 0.60 0.62 0.56 0.51 0.48 0.46 0.46 0.45 0.45 0.46 0.46 0.47 0.44 0.42 0.38 0.36 0.39 0.44
0.45 0.40 0.34 0.30 0.32 0.30 0.27 0.29 0.30 0.18 0.09 0.06 0.05 0.07 0.09 0.11 0.10 0.09 0.11 0.16 0.19 0.23 0.30 0.42 0.49 0.54 0.54 0.49 0.45 0.44 0.44 0.41 0.38 0.38 0.40 0.41 0.40 0.39 0.38 0.37 0.33 0.35 0.39
0.31 0.24 0.22 0.24 0.24 0.21 0.20 0.20 0.23 0.26 0.24 0.19 0.10 0.06 0.09 0.11 0.12 0.11 0.13 0.20 0.26 0.26 0.31 0.36 0.41 0.43 0.45 0.43 0.40 0.37 0.36 0.34 0.32 0.32 0.33 0.35 0.36 0.35 0.32 0.32 0.31 0.29 0.32
0.24 0.20 0.17 0.17 0.17 0.16 0.15 0.13 0.13 0.15 0.22 0.26 0.22 0.14 0.11 0.13 0.15 0.16 0.16 0.19 0.24 0.26 0.28 0.31 0.32 0.31 0.32 0.34 0.35 0.34 0.30 0.29 0.27 0.27 0.27 0.29 0.30 0.31 0.31 0.27 0.24 0.19 0.23
0.21 0.16 0.12 0.11 0.11 0.11 0.09 0.09 0.10 0.12 0.16 0.21 0.20 0.15 0.14 0.20 0.23 0.20 0.16 0.16 0.18 0.21 0.24 0.27 0.26 0.25 0.25 0.25 0.24 0.24 0.23 0.21 0.19 0.20 0.23 0.26 0.26 0.26 0.25 0.22 0.19 0.20 0.20
0.13 0.08 0.06 0.05 0.07 0.06 0.06 0.05 0.07 0.09 0.12 0.14 0.12 0.09 0.13 0.20 0.25 0.22 0.18 0.17 0.18 0.20 0.23 0.24 0.21 0.20 0.19 0.18 0.17 0.16 0.16 0.16 0.15 0.17 0.19 0.22 0.21 0.19 0.18 0.15 0.12 0.10 0.10
0.10 0.08 0.04 0.03 0.03 0.04 0.04 0.05 0.05 0.06 0.08 0.09 0.08 0.08 0.11 0.15 0.19 0.20 0.19 0.18 0.19 0.21 0.21 0.21 0.19 0.18 0.17 0.16 0.15 0.14 0.14 0.14 0.16 0.17 0.18 0.19 0.17 0.12 0.10 0.09 0.08 0.06 0.04
0.06 0.05 0.05 0.04 0.04 0.03 0.03 0.04 0.03 0.03 0.04 0.05 0.05 0.06 0.08 0.11 0.14 0.19 0.20 0.18 0.18 0.18 0.17 0.16 0.16 0.15 0.13 0.12 0.12 0.12 0.13 0.12 0.13 0.14 0.17 0.16 0.11 0.08 0.07 0.06 0.06 0.05 0.04
0.03 0.03 0.03 0.04 0.04 0.04 0.03 0.03 0.02 0.02 0.03 0.04 0.05 0.06 0.07 0.09 0.11 0.16 0.22 0.21 0.18 0.16 0.14 0.12 0.11 0.11 0.11 0.09 0.09 0.08 0.07 0.07 0.08 0.10 0.14 0.13 0.08 0.06 0.05 0.05 0.04 0.05 0.05
0.02 0.02 0.02 0.02 0.02 0.02 0.02 0.02 0.02 0.02 0.02 0.04 0.05 0.06 0.06 0.05 0.06 0.11 0.16 0.21 0.20 0.16 0.12 0.10 0.08 0.08 0.08 0.08 0.06 0.05 0.05 0.06 0.05 0.07 0.12 0.12 0.07 0.05 0.05 0.05 0.04 0.04 0.05
0.02 0.01 0.01 0.01 0.01 0.02 0.02 0.02 0.03 0.04 0.04 0.03 0.04 0.04 0.04 0.04 0.05 0.06 0.09 0.13 0.16 0.17 0.13 0.10 0.08 0.06 0.05 0.05 0.04 0.04 0.04 0.05 0.05 0.05 0.09 0.11 0.08 0.06 0.05 0.05 0.06 0.06 0.07